sat.trackr.live / text

‹ back to catalog

BOHR

NORAD 69917 · 2026-156BA

PAYLOAD ACTIVE UNKNOWN

§ Identity

Operator
Country
US
Launch date
2026-07-07
Launch site
AFWTR
Launch vehicle
Mass (kg)
RCS (m²)

External: N2YO · Heavens-Above · Gunter

§ Orbital elements

Epoch: 2026-09-19T11:41:20.944608Z

Period
96.47 min
Inclination
97.7489°
Eccentricity
0.0008180
Mean motion
14.92695615 rev/d
Perigee alt
583.8 km
Apogee alt
595.2 km
Semi-major
6,967.7 km
B*
1.2554e-4
RAAN
161.8258°
Arg perigee
279.3516°
Mean anomaly
80.6778°
Rev number
1,106

§ Raw data

BOHR1 69917U 26156BA  26262.48704797  .00001239  00000+0  12554-3 0  99902 69917  97.7489 161.8258 0008180 279.3516  80.6778 14.92695615 11061

JSON: /api/v1/satellites/69917 · /tle

For live sub-satellite position, see the globe view (requires WebGL).

§ Visibility from observer

Set your observer location to see the next 7 days of passes ≥ 10°. The values pass through the URL so the page stays shareable.

No JS? Fill the form by hand. The geolocation button needs JavaScript.